Overview Statistics Trail Chart Weather Telemetry Raw packets
 

This is the latest recevied weather packets stored in our database for station/object WC4PEM-9. If no packets are shown the sender has not sent any weather packets the latest 10 day(s).

<< 152 153 154 155 156 157 158 >>
Time Temp. Humidity Pressure Rain* Wind** Luminosity Snow
1787782937 29.44° C 74% 1014.5 hPa 0 mm - - -
1787782637 31.11° C 68% 1014.6 hPa 0 mm - - -
1787782440 31.67° C 68% 1014.1 hPa 0 mm - - -
1787782337 31.67° C 68% 1014.1 hPa 0 mm - - -
1787782137 32.22° C 65% 1013.7 hPa 0 mm - - -
1787782037 32.22° C 65% 1013.7 hPa 0 mm - - -
1787781958 32.78° C 65% 1013.4 hPa 0 mm - - -
1787781916 32.78° C 65% 1013.4 hPa 0 mm - - -
1787781737 32.78° C 65% 1013.4 hPa 0 mm - - -
1787781437 33.33° C 62% 1013.2 hPa 0 mm - - -
1787781137 33.33° C 62% 1013.1 hPa 0 mm - - -
1787780837 32.78° C 61% 1013.2 hPa 0 mm - - -
1787780777 32.78° C 60% 1013.4 hPa 0 mm - - -
1787780542 33.33° C 58% 1013.2 hPa 0 mm - - -
1787780537 32.78° C 60% 1013.4 hPa 0 mm - - -
1787780237 33.33° C 58% 1013.2 hPa 0 mm - - -
1787780236 33.33° C 57% 1013.4 hPa 0 mm - - -
1787779937 33.33° C 57% 1013.4 hPa 0 mm - - -
1787779637 33.33° C 58% 1013.3 hPa 0 mm - - -
1787779337 33.89° C 56% 1013.2 hPa 0 mm - - -
1787779037 33.89° C 56% 1013.3 hPa 0 mm - - -
1787778737 34.44° C 55% 1013.3 hPa 0 mm - - -
1787778711 34.44° C 55% 1013.4 hPa 0 mm - - -
1787778437 34.44° C 55% 1013.4 hPa 0 mm - - -
1787778137 33.89° C 55% 1013.5 hPa 0 mm - - -

* Rain latest hour (hover to see other rain measurements)
** Current wind speed in m/s (hover to see current wind gust speed)